Meteo pe oră la

Astăzi, 28 Ianuarie, Joi

Timp Temperatura Precipitaţii Vânt Presiune Umiditate
00:00 +20°C° 0 mm 0 m/s 744 mmHg 96%
01:00 +20°C° 0 mm 0 m/s 744 mmHg 95%
02:00 +20°C° 0 mm 0 m/s 743 mmHg 94%
03:00 +20°C° 0 mm 0 m/s 743 mmHg 93%
04:00 +20°C° 0 mm 0 m/s 743 mmHg 95%
05:00 +19°C° 0 mm 0 m/s 743 mmHg 96%
06:00 +19°C° 0 mm 0 m/s 743 mmHg 97%
07:00 +22°C° 0 mm 0 m/s 744 mmHg 85%
08:00 +27°C° 0 mm 1 m/s 744 mmHg 73%
09:00 +30°C° 0 mm 1 m/s 745 mmHg 60%
10:00 +31°C° 0 mm 1 m/s 744 mmHg 53%
11:00 +32°C° 0 mm 2 m/s 744 mmHg 46%
12:00 +34°C° 0 mm 3 m/s 743 mmHg 39%
13:00 +35°C° 0 mm 3 m/s 743 mmHg 41%
14:00 +35°C° 0 mm 3 m/s 742 mmHg 42%
15:00 +35°C° 0 mm 3 m/s 741 mmHg 43%
16:00 +33°C° 0 mm 3 m/s 741 mmHg 50%
17:00 +31°C° 0 mm 2 m/s 741 mmHg 57%
18:00 +29°C° 0 mm 2 m/s 741 mmHg 64%
19:00 +28°C° 0 mm 2 m/s 742 mmHg 72%
20:00 +26°C° 0 mm 2 m/s 743 mmHg 80%
21:00 +24°C° 0 mm 1 m/s 743 mmHg 88%
22:00 +24°C° 0 mm 1 m/s 743 mmHg 91%
23:00 +23°C° 0 mm 1 m/s 743 mmHg 94%

Mâine, 29 Ianuarie, Vineri

Timp Temperatura Precipitaţii Vânt Presiune Umiditate
00:00 +21°C° 0 mm 0 m/s 744 mmHg 97%
01:00 +20°C° 0 mm 0 m/s 743 mmHg 97%
02:00 +20°C° 0 mm 0 m/s 743 mmHg 98%
03:00 +20°C° 0 mm 0 m/s 743 mmHg 98%
04:00 +20°C° 0 mm 0 m/s 743 mmHg 98%
05:00 +20°C° 0 mm 0 m/s 744 mmHg 97%
06:00 +20°C° 0 mm 0 m/s 744 mmHg 97%
07:00 +23°C° 0 mm 0 m/s 744 mmHg 86%
08:00 +27°C° 0 mm 1 m/s 745 mmHg 74%
09:00 +29°C° 0 mm 1 m/s 745 mmHg 63%
10:00 +30°C° 0.3 mm 2 m/s 745 mmHg 65%
11:00 +30°C° 0.3 mm 2 m/s 744 mmHg 66%
12:00 +30°C° 0.3 mm 2 m/s 744 mmHg 68%
13:00 +30°C° 0.5 mm 2 m/s 743 mmHg 68%
14:00 +30°C° 0.5 mm 1 m/s 743 mmHg 68%
15:00 +30°C° 0.5 mm 1 m/s 742 mmHg 68%
16:00 +30°C° 0 mm 1 m/s 742 mmHg 67%
17:00 +29°C° 0 mm 1 m/s 742 mmHg 67%
18:00 +29°C° 0 mm 2 m/s 742 mmHg 66%
19:00 +27°C° 0 mm 1 m/s 743 mmHg 70%
20:00 +26°C° 0 mm 1 m/s 743 mmHg 74%
21:00 +24°C° 0 mm 1 m/s 744 mmHg 77%
22:00 +23°C° 0 mm 1 m/s 744 mmHg 83%
23:00 +22°C° 0 mm 1 m/s 744 mmHg 88%

Poimâine, 30 Ianuarie, Sâmbătă

Timp Temperatura Precipitaţii Vânt Presiune Umiditate
00:00 +19°C° 0 mm 0 m/s 744 mmHg 94%
01:00 +20°C° 0 mm 0 m/s 744 mmHg 93%
02:00 +20°C° 0 mm 0 m/s 744 mmHg 92%
03:00 +20°C° 0 mm 0 m/s 744 mmHg 92%
04:00 +20°C° 0 mm 0 m/s 744 mmHg 93%
05:00 +20°C° 0 mm 0 m/s 745 mmHg 94%
06:00 +20°C° 0 mm 0 m/s 745 mmHg 96%
07:00 +25°C° 0 mm 1 m/s 745 mmHg 84%
08:00 +27°C° 0 mm 1 m/s 746 mmHg 72%
09:00 +30°C° 0 mm 1 m/s 746 mmHg 61%
10:00 +31°C° 0 mm 2 m/s 745 mmHg 56%
11:00 +32°C° 0 mm 2 m/s 745 mmHg 51%
12:00 +34°C° 0 mm 2 m/s 744 mmHg 46%
13:00 +35°C° 0 mm 2 m/s 744 mmHg 45%
14:00 +35°C° 0 mm 2 m/s 743 mmHg 43%
15:00 +35°C° 0 mm 2 m/s 743 mmHg 42%
16:00 +34°C° 0.1 mm 2 m/s 743 mmHg 49%
17:00 +31°C° 0.1 mm 2 m/s 743 mmHg 55%
18:00 +30°C° 0.1 mm 2 m/s 743 mmHg 62%
19:00 +28°C° 0.1 mm 2 m/s 743 mmHg 71%
20:00 +26°C° 0.1 mm 1 m/s 744 mmHg 81%
21:00 +24°C° 0.1 mm 1 m/s 744 mmHg 90%
22:00 +24°C° 0 mm 1 m/s 744 mmHg 91%
23:00 +22°C° 0 mm 0 m/s 744 mmHg 93%

31 Ianuarie, Duminică

Timp Temperatura Precipitaţii Vânt Presiune Umiditate
00:00 +21°C° 0 mm 0 m/s 744 mmHg 95%
01:00 +21°C° 0 mm 0 m/s 744 mmHg 95%
02:00 +21°C° 0 mm 0 m/s 744 mmHg 95%
03:00 +21°C° 0 mm 0 m/s 744 mmHg 96%
04:00 +21°C° 0 mm 0 m/s 744 mmHg 96%
05:00 +21°C° 0 mm 0 m/s 744 mmHg 96%
06:00 +20°C° 0 mm 0 m/s 744 mmHg 97%
07:00 +23°C° 0 mm 0 m/s 745 mmHg 86%
08:00 +26°C° 0 mm 0 m/s 745 mmHg 74%
09:00 +30°C° 0 mm 1 m/s 746 mmHg 63%
10:00 +31°C° 0.1 mm 1 m/s 745 mmHg 59%
11:00 +32°C° 0.1 mm 1 m/s 744 mmHg 55%
12:00 +34°C° 0.1 mm 2 m/s 744 mmHg 51%
13:00 +34°C° 0.5 mm 2 m/s 743 mmHg 54%
14:00 +34°C° 0.5 mm 2 m/s 743 mmHg 56%
15:00 +32°C° 0.5 mm 2 m/s 742 mmHg 58%
16:00 +31°C° 0.8 mm 2 m/s 742 mmHg 67%
17:00 +29°C° 0.8 mm 2 m/s 742 mmHg 76%
18:00 +27°C° 0.8 mm 1 m/s 742 mmHg 86%
19:00 +26°C° 0.5 mm 1 m/s 743 mmHg 89%
20:00 +25°C° 0.5 mm 1 m/s 743 mmHg 92%
21:00 +24°C° 0.5 mm 1 m/s 744 mmHg 95%
22:00 +24°C° 0 mm 1 m/s 744 mmHg 96%
23:00 +23°C° 0 mm 1 m/s 744 mmHg 97%

1 Februarie, Luni

Timp Temperatura Precipitaţii Vânt Presiune Umiditate
00:00 +21°C° 0 mm 0 m/s 744 mmHg 98%
01:00 +21°C° 0 mm 0 m/s 744 mmHg 98%
02:00 +20°C° 0 mm 0 m/s 743 mmHg 98%
03:00 +20°C° 0 mm 0 m/s 743 mmHg 98%
04:00 +20°C° 0 mm 0 m/s 743 mmHg 98%
05:00 +20°C° 0 mm 0 m/s 743 mmHg 97%
06:00 +20°C° 0 mm 0 m/s 744 mmHg 97%
07:00 +22°C° 0 mm 0 m/s 744 mmHg 92%
08:00 +23°C° 0 mm 0 m/s 745 mmHg 87%
09:00 +24°C° 0 mm 0 m/s 745 mmHg 83%
10:00 +29°C° 0 mm 1 m/s 745 mmHg 72%
11:00 +31°C° 0 mm 1 m/s 744 mmHg 60%
12:00 +33°C° 0 mm 1 m/s 744 mmHg 49%
13:00 +32°C° 0.5 mm 2 m/s 743 mmHg 53%
14:00 +32°C° 0.5 mm 2 m/s 742 mmHg 57%
15:00 +31°C° 0.5 mm 3 m/s 742 mmHg 60%
16:00 +30°C° 1.2 mm 2 m/s 742 mmHg 70%
17:00 +28°C° 1.2 mm 2 m/s 742 mmHg 79%
18:00 +26°C° 1.2 mm 1 m/s 742 mmHg 88%
19:00 +25°C° 0.1 mm 1 m/s 743 mmHg 90%
20:00 +24°C° 0.1 mm 1 m/s 743 mmHg 93%
21:00 +21°C° 0.1 mm 0 m/s 744 mmHg 95%
22:00 +21°C° 0 mm 0 m/s 744 mmHg 96%
23:00 +21°C° 0 mm 0 m/s 744 mmHg 97%

2 Februarie, Marţi

Timp Temperatura Precipitaţii Vânt Presiune Umiditate
00:00 +21°C° 0 mm 0 m/s 744 mmHg 97%
01:00 +21°C° 0 mm 0 m/s 744 mmHg 98%
02:00 +20°C° 0 mm 0 m/s 743 mmHg 98%
03:00 +20°C° 0 mm 0 m/s 743 mmHg 98%
04:00 +20°C° 0 mm 0 m/s 743 mmHg 98%
05:00 +21°C° 0 mm 0 m/s 744 mmHg 97%
06:00 +21°C° 0 mm 0 m/s 744 mmHg 97%
07:00 +23°C° 0.1 mm 0 m/s 745 mmHg 90%
08:00 +26°C° 0.1 mm 1 m/s 745 mmHg 83%
09:00 +28°C° 0.1 mm 1 m/s 745 mmHg 76%
10:00 +29°C° 0.3 mm 1 m/s 745 mmHg 70%
11:00 +30°C° 0.3 mm 2 m/s 745 mmHg 64%
12:00 +32°C° 0.3 mm 2 m/s 744 mmHg 58%
13:00 +32°C° 0.9 mm 2 m/s 744 mmHg 60%
14:00 +31°C° 0.9 mm 2 m/s 743 mmHg 62%
15:00 +31°C° 0.9 mm 2 m/s 743 mmHg 64%
16:00 +30°C° 0.8 mm 2 m/s 743 mmHg 71%
17:00 +28°C° 0.8 mm 2 m/s 743 mmHg 77%
18:00 +27°C° 0.8 mm 2 m/s 743 mmHg 84%
19:00 +26°C° 0.2 mm 1 m/s 744 mmHg 87%
20:00 +25°C° 0.2 mm 1 m/s 744 mmHg 91%
21:00 +24°C° 0.2 mm 1 m/s 745 mmHg 94%
22:00 +24°C° 0 mm 1 m/s 745 mmHg 95%
23:00 +21°C° 0 mm 0 m/s 745 mmHg 96%
Arată mai mult

Formular de consimțământ

Meteoprog și furnizorii noștri de servicii pot stoca și accesa date personale, precum cookies, identificatori de dispozitiv sau alte tehnologii similare pe dispozitivul dumneavoastră și procesa astfel de date pentru a personaliza conținutul și reclamele, dar și pentru a oferi caracteristici de social media și pentru a analiza traficul.

  • Stocarea și/sau accesarea informațiilor pe dispozitivul dumneavoastră

    Cookies, identificatori de dispozitiv sau alte informații pot fi stocate sau accesate pe dispozitiv în scopurile indicate mai sus.

  • Reclame și conținut personalizat, evaluarea reclamelor și a conținutului, informații despre audiențe și dezvoltarea produselor

    Reclamele și conținutul pot fi personalizate pe baza unui profil. Pot fi adăugate date suplimentare pentru a personaliza mai bine reclamele și conținutul. Performanța reclamelor și conținutului poate fi măsurată. Pot fi obținute informații despre utilizatorii care au văzut reclamele și conținutul. Aceste date pot fi utilizate pentru a dezvolta sau îmbunătăți experiența utilizatorilor, sistemele și software-ul.

Dând clic pe ‘Sunt de acord’, permiteți utilizarea cookie-urilor menționate, a identificatorilor de dispozitiv, balizelor web sau altor tehnologii similare. Setările pot fi modificate din browser-ul dispozitivului dumneavoastră.

În anumite scopuri, interesele legitime pot prima asupra consimțământului. Puteți citi mai multe informații în acest sens în Politica privind Confidențialitatea Datelor și Cookie.